Preview of NWS' New Version of Forecast
This preview is not operational and should not be used for support decisions.

Regional Weather Roundup (RWR)

Issued by National Weather Service (NWS)

                            
000
ASUS46 KPQR 181110
RWROR 

OREGON REGIONAL WEATHER ROUNDUP
NATIONAL WEATHER SERVICE PORTLAND OR
300 AM PST MON FEB 18 2019

NOTE: "FAIR" INDICATES FEW OR NO CLOUDS BELOW 12,000 FEET WITH
NO SIGNIFICANT WEATHER AND/OR OBSTRUCTIONS TO VISIBILITY.

ORZ001>013-181200-
NORTHWEST OREGON

  
CITY           SKY/WX    TMP DP  RH WIND       PRES   REMARKS
ASTORIA        CLOUDY    32  31  96 SE3       30.37S                  
TILLAMOOK      PTCLDY    30  28  93 SE3       30.40S FOG              
NEWPORT        CLOUDY    32  32 100 E5        30.40S FOG              
PORTLAND       PTCLDY    31  28  89 CALM      30.39R FOG              
VANCOUVER WA   CLEAR     27  25  92 CALM      30.38R                  
SCAPPOOSE      FOG       30  26  85 CALM      30.38R VSB 1/2          
HILLSBORO      FOG       26  25  96 CALM      30.37S VSB 1/4          
AURORA         CLEAR     31  29  92 CALM      30.38S                  
MCMINNVILLE    FOG       28  27  96 CALM      30.37S VSB 1/2          
SALEM          MOCLDY    30  27  88 CALM      30.37S                  
CORVALLIS      CLOUDY    33  32  96 W5        30.38S                  
EUGENE         CLOUDY    34  31  88 CALM      30.37R                  
$$

ORZ021-028-181200-
SOUTHWEST OREGON

  
CITY           SKY/WX    TMP DP  RH WIND       PRES   REMARKS
NORTH BEND     CLOUDY    33  33 100 SE9       30.40R                  
BROOKINGS      CLEAR     33  30  88 NE5       30.30S                  
ROSEBURG       CLOUDY    32  31  96 CALM      30.37R                  
SEXTON SUMMIT  FOG       23  22  96 N8        30.17S VSB 3/4          
GRANTS PASS    FOG       27  27 100 CALM      30.34  VSB 1/4          
MEDFORD        CLOUDY    28  25  88 CALM      30.30R                  
$$

ORZ014>016-041-181200-
COLUMBIA GORGE

  
CITY           SKY/WX    TMP DP  RH WIND       PRES   REMARKS
TROUTDALE      CLOUDY    34  32  92 CALM      30.38R                  
HOOD RIVER     CLOUDY    32  32 100 CALM      30.35S FOG              
THE DALLES     CLOUDY    33  31  92 CALM      30.37R                  
$$

ORZ029>031-041-044-049-050-061>064-502-503-505>511-181200-
EASTERN OREGON

  
CITY           SKY/WX    TMP DP  RH WIND       PRES   REMARKS
MADRAS         NOT AVBL                                               
REDMOND        CLOUDY    29  26  89 NW7       30.20S                  
BEND           CLOUDY    28  25  86 NW9       30.19S                  
PRINEVILLE     CLOUDY    27  25  93 W7        30.19                   
KLAMATH FALLS  CLEAR     18  13  80 CALM      30.14S                  
LAKEVIEW       MOCLDY    18  14  86 N8        30.09S                  
HERMISTON      CLOUDY    29  19  66 N9        30.35R                  
PENDLETON      CLOUDY    26  24  92 NW12      30.28S WCI  16          
JOHN DAY       CLOUDY    27  24  91 CALM      30.14                   
MEACHAM        CLOUDY    21  17  84 VRB5      30.14S                  
LA GRANDE      CLOUDY    27  21  78 NW12      30.19R WCI  17          
BAKER CITY     CLOUDY    27  22  81 VRB7      30.12R                  
BURNS          CLOUDY    20  14  77 W9        30.09S                  
ROME             N/A     19  16  88 SE5       30.04S                  
ONTARIO        CLOUDY    32  22  66 NW15      30.12S WCI  22          
$$